This demonstration page uses our WeatherBlox Daily Observations layout. Learn more.

Left ArrowRight Arrow

Hourly Observations for November 20, 2020

Temp ( °F °C ) Dew Point ( °F °C ) Humidity (%) Winds ( mph kmh ) Pressure ( in mb ) Visibility ( mi km ) Precip ( " mm )
12:51 am 00:51 Clear 55 12.8 32 0 42 42 E 5 7 30.03 1017 10 16 0.00 0.00
1:51 am 01:51 Clear 53 11.7 32 0 45 45 SE 6 9 30.04 1017 10 16 0.00 0.00
2:51 am 02:51 Clear 54 12.2 33 0.6 45 45 SSE 6 9 30.03 1017 10 16 0.00 0.00
3:51 am 03:51 Clear 51 10.6 33 0.6 50 50 Calm 30.05 1018 10 16 0.00 0.00
4:51 am 04:51 Clear 50 10 32 0 50 50 ESE 6 9 30.07 1018 10 16 0.00 0.00
5:51 am 05:51 Clear 49 9.4 33 0.6 55 55 Calm 30.10 1019 10 16 0.00 0.00
6:51 am 06:51 Clear 48 8.9 32 0 54 54 Calm 30.13 1020 10 16 0.00 0.00
7:51 am 07:51 Sunny 54 12.2 33 0.6 45 45 Calm 30.15 1021 10 16 0.00 0.00
8:51 am 08:51 Sunny 60 15.6 35 1.7 39 39 Calm 30.15 1021 10 16 0.00 0.00
9:51 am 09:51 Sunny 70 21.1 38 3.3 31 31 SE 9 15 30.14 1021 10 16 0.00 0.00
10:51 am 10:51 Sunny 74 23.3 38 3.3 27 27 SE 10 17 30.12 1020 10 16 0.00 0.00
11:51 am 11:51 Sunny 77 25 38 3.3 24 24 SE 6 9 30.09 1019 10 16 0.00 0.00
12:51 pm 12:51 Sunny 79 26.1 38 3.3 23 23 VRB 5 7 30.05 1018 10 16 0.00 0.00
1:51 pm 13:51 Sunny 81 27.2 38 3.3 21 21 Calm 30.02 1017 10 16 0.00 0.00
2:51 pm 14:51 Sunny 84 28.9 39 3.9 20 20 VRB 3 6 30.00 1016 10 16 0.00 0.00
3:51 pm 15:51 Sunny 83 28.3 39 3.9 21 21 Calm 30.00 1016 10 16 0.00 0.00
4:51 pm 16:51 Sunny 81 27.2 38 3.3 21 21 Calm 30.01 1016 10 16 0.00 0.00
5:51 pm 17:51 Clear 74 23.3 38 3.3 27 27 WSW 3 6 30.03 1017 10 16 0.00 0.00
6:51 pm 18:51 Clear 68 20 36 2.2 31 31 N 5 7 30.06 1018 10 16 0.00 0.00
7:51 pm 19:51 Clear 65 18.3 36 2.2 34 34 NW 6 9 30.05 1018 10 16 0.00 0.00
8:51 pm 20:51 Clear 65 18.3 37 2.8 36 36 ESE 5 7 30.04 1017 10 16 0.00 0.00
9:51 pm 21:51 Clear 60 15.6 35 1.7 39 39 N 3 6 30.05 1018 10 16 0.00 0.00
10:51 pm 22:51 Clear 58 14.4 35 1.7 42 42 Calm 30.04 1017 10 16 0.00 0.00
11:51 pm 23:51 Clear 56 13.3 34 1.1 44 44 Calm 30.04 1017 10 16 0.00 0.00

Powered by AerisWeather